[[{"header":{"parameterUnit":"m.s-1","parameterCategory":2,"la1":30.2991,"la2":30.254,"lo1":-89.0895,"lo2":-89.0444,"dy":0.0017,"dx":0.0017,"nx":28,"ny":28,"refTime":"2023-05-23T21:00:00:Z","depth":"0","parameterNumber":2,"parameterNumberName":"U-component_of_CURRENTS"},"data":[0,0,0,0,0,0,0,0,0,0,0,0,0,0,0,0,0,0,0,0,0,0,0,0,0,0,0,0,0,0,0,0,0,0,0,0,0,0,0,0,0,0,0,0,0,0,0,0,0,0,0,0,0,0,0,0,0,0,-0.4152,-0.4153,0,-0.4166,-0.4166,-0.4165,-0.4086,-0.4085,-0.4083,-0.4082,-0.3928,-0.3925,-0.3923,0,0,0,0,0,0,0,0,0,0,0,0,0,-0.3933,-0.3938,-0.4152,-0.4153,-0.4154,-0.4166,-0.4166,-0.4165,-0.4086,-0.4085,-0.4083,-0.4081,-0.3929,-0.3926,-0.3922,0,0,0,0,0,0,0,0,0,0,0,0,0,-0.3987,-0.3939,-0.4152,-0.4124,-0.4122,-0.4166,-0.4166,-0.4165,-0.4087,-0.4085,-0.4083,-0.4081,-0.393,-0.3926,-0.3922,-0.3938,0,0,-0.3909,-0.3907,0,0,0,0,0,0,0,0,-0.3984,-0.3994,-0.4127,-0.4126,-0.4124,-0.4131,-0.4032,-0.4084,-0.4087,-0.409,-0.4082,-0.408,-0.3988,-0.3979,-0.3975,-0.3931,-0.3924,-0.3909,-0.3906,-0.3904,-0.3903,0,0,0,0,0,0,0,-0.3981,-0.3993,-0.4148,-0.4128,-0.4127,-0.4068,-0.4073,-0.4041,-0.404,-0.409,-0.4086,-0.4104,-0.3984,-0.398,-0.3971,-0.3922,-0.3909,-0.3905,-0.3902,-0.3901,-0.3908,-0.391,0,0,0,0,0,0,-0.4008,-0.3991,-0.4148,-0.415,-0.4058,-0.4075,-0.408,-0.4123,-0.4044,-0.4034,-0.4105,-0.41,-0.3988,-0.3976,-0.3965,-0.4014,-0.3904,-0.39,-0.3898,-0.3905,-0.3908,-0.3911,0,0,0,0,0,0,-0.4004,-0.4023,-0.4148,-0.4075,-0.4088,-0.4083,-0.413,-0.4125,-0.4122,-0.406,-0.4044,-0.411,-0.3986,-0.3971,-0.3954,-0.4005,-0.3898,-0.3895,-0.3902,-0.3906,-0.391,-0.4089,0,0,0,0,0,0,-0.3998,-0.4022,-0.4053,-0.4079,-0.4094,-0.4199,-0.4133,-0.4127,-0.414,-0.4133,-0.4058,-0.4042,-0.3983,-0.3961,-0.395,-0.3997,-0.3891,-0.3899,-0.3904,-0.3909,-0.4079,-0.4098,-0.4115,0,0,0,0,0,-0.399,-0.4062,-0.4055,-0.4073,-0.4141,-0.4203,-0.4205,-0.4184,-0.4143,-0.4167,-0.4111,-0.4044,-0.3985,-0.396,-0.3947,-0.3994,-0.3896,-0.3902,-0.3908,-0.4071,-0.4095,-0.4114,0,0,0,0,0,0,-0.398,-0.4063,-0.4054,-0.4145,-0.4178,-0.4193,-0.4219,-0.4199,-0.4176,-0.4154,-0.4074,-0.4056,-0.4064,-0.4008,-0.3982,-0.4013,-0.3932,-0.3936,-0.4061,-0.4082,-0.4099,-0.4095,-0.3888,0,0,0,0,0,-0.3997,-0.4066,-0.4122,-0.4186,-0.4215,-0.4213,-0.423,-0.422,-0.4211,-0.4198,-0.4148,-0.4098,-0.4082,-0.4063,-0.4033,-0.4046,-0.4006,-0.407,-0.4088,-0.4103,-0.4092,-0.4111,-0.413,-0.3931,-0.3931,-0.3931,0,0,-0.3993,-0.4061,-0.4087,-0.4186,-0.4204,-0.4273,-0.4217,-0.4262,-0.4299,-0.4185,-0.4202,-0.4156,-0.41,-0.4121,-0.4119,-0.4076,-0.4142,-0.4111,-0.4124,-0.4104,-0.412,-0.4139,-0.4156,-0.3935,-0.3935,-0.3934,0,0,-0.4059,-0.4102,-0.4187,-0.4235,-0.4302,-0.4313,-0.4335,-0.436,-0.4353,-0.4374,-0.4307,-0.4297,-0.4257,-0.424,-0.4224,-0.4321,-0.4237,-0.4309,-0.4391,-0.4412,-0.4428,-0.4442,-0.4431,-0.4442,-0.4316,-0.4317,-0.4317,0,-0.4047,-0.4174,-0.4214,-0.4316,-0.4356,-0.4343,-0.4422,-0.4437,-0.4442,-0.4449,-0.4399,-0.4378,-0.4321,-0.4366,-0.4384,-0.4363,-0.434,-0.4318,-0.4436,-0.4448,-0.4459,-0.4444,-0.4454,-0.4326,-0.4325,-0.4324,-0.4323,0,-0.4172,-0.4271,-0.433,-0.4451,-0.4501,-0.4565,-0.4604,-0.463,-0.4607,-0.4608,-0.4635,-0.4574,-0.455,-0.4552,-0.4482,-0.4545,-0.4493,-0.4461,-0.4383,-0.449,-0.4467,-0.4475,-0.4339,-0.4336,-0.4333,-0.4331,0,0,-0.4103,-0.437,-0.4365,-0.4457,-0.457,-0.4616,-0.4705,-0.4773,-0.4805,-0.4808,-0.484,-0.4829,-0.4769,-0.4745,-0.4683,-0.4689,-0.4739,-0.4598,-0.4594,-0.4588,-0.4762,-0.4402,-0.4374,-0.4728,-0.473,-0.4731,-0.4721,0,-0.4162,-0.4362,-0.4486,-0.4633,-0.4724,-0.4785,-0.4866,-0.4916,-0.4922,-0.4945,-0.4923,-0.4917,-0.4857,-0.4819,-0.4834,-0.4733,-0.4763,-0.4743,-0.4655,-0.4652,-0.4321,-0.4372,-0.4082,-0.4017,-0.4727,-0.4728,-0.4729,0,-0.418,-0.4333,-0.4489,-0.4728,-0.4771,-0.4853,-0.4939,-0.5028,-0.5082,-0.5078,-0.5095,-0.5044,-0.5037,-0.4962,-0.4929,-0.4912,-0.4852,-0.4801,-0.4799,-0.4394,-0.4303,-0.4021,-0.4002,-0.3953,-0.4739,-0.4738,-0.4737,0,-0.4009,-0.4305,-0.4422,-0.4493,-0.4757,-0.4828,-0.4946,-0.5032,-0.5086,-0.5135,-0.5119,-0.5151,-0.5084,-0.5076,-0.4946,-0.4933,-0.4893,-0.4869,-0.4529,-0.4504,-0.4196,-0.4136,-0.4106,-0.4894,-0.4894,-0.4894,-0.4894,0,-0.3963,-0.4058,-0.4358,-0.4412,-0.4545,-0.4759,-0.487,-0.4961,-0.5078,-0.5105,-0.5153,-0.5119,-0.5098,-0.5054,-0.4993,-0.474,-0.4944,-0.4524,-0.4468,-0.4245,-0.4193,-0.4079,-0.4156,-0.4894,-0.4894,-0.4894,-0.4894,0,-0.3719,-0.3925,-0.4087,-0.4382,-0.4461,-0.4532,-0.4809,-0.4886,-0.5009,-0.5029,-0.5031,-0.5064,-0.495,-0.4937,-0.4868,-0.4705,-0.4452,-0.4477,-0.4182,-0.4083,-0.3563,-0.3661,-0.355,-0.3469,-0.4032,-0.4023,-0.4015,0,-0.363,-0.3678,-0.3958,-0.4053,-0.4191,-0.4375,-0.4486,-0.4745,-0.4839,-0.496,-0.4935,-0.4868,-0.4711,-0.4488,-0.4231,-0.4036,-0.4163,-0.367,-0.3556,-0.3459,-0.3537,-0.3643,-0.3598,-0.327,-0.3257,-0.3246,-0.3237,0,-0.3452,-0.3517,-0.3654,-0.3816,-0.3961,-0.4134,-0.4343,-0.4397,-0.4663,-0.466,-0.4589,-0.4474,-0.4185,-0.3746,-0.3498,-0.3389,-0.3496,-0.3422,-0.3448,-0.3,-0.3001,-0.2918,-0.3374,-0.3141,-0.3151,-0.3158,-0.3163,-0.3167,-0.3272,-0.3302,-0.346,-0.3591,-0.3755,-0.3858,-0.3897,-0.4074,-0.4117,-0.4007,-0.4092,-0.367,-0.3324,-0.2817,-0.2763,-0.2438,-0.2702,-0.2309,-0.2465,-0.2603,-0.2414,-0.2586,-0.2188,-0.2192,-0.2195,-0.2199,-0.2201,0,-0.3053,-0.3133,-0.3257,-0.341,-0.3456,-0.3618,-0.3769,-0.3709,-0.361,-0.3378,-0.3158,-0.2469,-0.2123,-0.1968,-0.1669,-0.1539,-0.1638,-0.1593,-0.1783,-0.1804,-0.2029,-0.1872,-0.1231,-0.1231,-0.1231,-0.1231,-0.1231,-0.1231,-0.2944,-0.2974,-0.3046,-0.3064,-0.3155,-0.3108,-0.3113,-0.2967,-0.2766,-0.2166,-0.1635,-0.132,-0.1298,-0.1341,-0.1258,-0.1216,-0.1358,-0.1242,-0.1461,-0.171,-0.1794,-0.1875,-0.1742,-0.1085,-0.1086,-0.1104,-0.1104,-0.1105]},{"header":{"parameterUnit":"m.s-1","parameterCategory":2,"la1":30.2991,"la2":30.254,"lo1":-89.0895,"lo2":-89.0444,"dy":0.0017,"dx":0.0017,"nx":28,"ny":28,"refTime":"2023-05-23T21:00:00:Z","depth":"0","parameterNumber":3,"parameterNumberName":"V-component_of_CURRENTS"},"data":[0,0,0,0,0,0,0,0,0,0,0,0,0,0,0,0,0,0,0,0,0,0,0,0,0,0,0,0,0,0,0,0,0,0,0,0,0,0,0,0,0,0,0,0,0,0,0,0,0,0,0,0,0,0,0,0,0,0,-0.0743,-0.0742,0,-0.0652,-0.0651,-0.0649,-0.0582,-0.0581,-0.0581,-0.0581,-0.042,-0.0416,-0.0412,0,0,0,0,0,0,0,0,0,0,0,0,0,-0.0765,-0.0765,-0.0743,-0.0742,-0.0742,-0.0652,-0.0651,-0.0649,-0.0582,-0.0581,-0.0581,-0.0581,-0.0422,-0.0417,-0.0412,0,0,0,0,0,0,0,0,0,0,0,0,0,-0.0719,-0.0765,-0.0743,-0.07,-0.0696,-0.0653,-0.0651,-0.0649,-0.0582,-0.0581,-0.0581,-0.0581,-0.0423,-0.0417,-0.0411,-0.038,0,0,-0.0393,-0.039,0,0,0,0,0,0,0,0,-0.0722,-0.0718,-0.0707,-0.0703,-0.0698,-0.0632,-0.06,-0.0557,-0.0582,-0.0621,-0.0581,-0.0581,-0.0488,-0.0476,-0.0455,-0.0373,-0.0366,-0.0392,-0.0388,-0.0386,-0.0384,0,0,0,0,0,0,0,-0.0725,-0.0721,-0.0703,-0.0707,-0.0701,-0.0654,-0.0647,-0.0591,-0.0552,-0.0617,-0.0613,-0.061,-0.0484,-0.0461,-0.045,-0.0363,-0.0392,-0.0387,-0.0383,-0.0381,-0.022,-0.0219,0,0,0,0,0,0,-0.075,-0.0724,-0.0706,-0.07,-0.0714,-0.0654,-0.0647,-0.065,-0.0554,-0.0541,-0.061,-0.0607,-0.0471,-0.0458,-0.0444,-0.0396,-0.0386,-0.038,-0.0377,-0.022,-0.022,-0.0219,0,0,0,0,0,0,-0.0751,-0.075,-0.0709,-0.0713,-0.0705,-0.0656,-0.0659,-0.0648,-0.0628,-0.0551,-0.0535,-0.0601,-0.0471,-0.0453,-0.0402,-0.039,-0.0377,-0.0372,-0.0221,-0.022,-0.0219,-0.0303,0,0,0,0,0,0,-0.0752,-0.0751,-0.0756,-0.0715,-0.0706,-0.0694,-0.0659,-0.0647,-0.0628,-0.0623,-0.0538,-0.0522,-0.0469,-0.0411,-0.0396,-0.0381,-0.0367,-0.0222,-0.0221,-0.022,-0.0301,-0.0305,-0.0308,0,0,0,0,0,-0.0753,-0.0776,-0.0757,-0.0754,-0.0717,-0.0695,-0.0686,-0.0645,-0.0628,-0.0624,-0.0568,-0.0525,-0.0392,-0.0407,-0.0388,-0.0371,-0.0222,-0.0221,-0.022,-0.0299,-0.0304,-0.0308,0,0,0,0,0,0,-0.079,-0.077,-0.0748,-0.0763,-0.0733,-0.0686,-0.0682,-0.0653,-0.0605,-0.0602,-0.0524,-0.0505,-0.045,-0.0401,-0.0419,-0.0319,-0.0297,-0.0292,-0.0363,-0.0367,-0.0371,-0.0407,-0.0362,0,0,0,0,0,-0.0801,-0.0808,-0.0775,-0.0783,-0.0776,-0.0727,-0.0712,-0.0689,-0.0646,-0.0625,-0.0563,-0.0495,-0.0429,-0.0395,-0.0332,-0.0286,-0.0275,-0.0259,-0.0263,-0.0266,-0.0281,-0.0261,-0.0266,-0.0214,-0.0214,-0.0214,0,0,-0.0816,-0.0806,-0.0809,-0.0791,-0.0764,-0.0763,-0.0717,-0.0709,-0.0696,-0.0614,-0.0576,-0.0507,-0.0419,-0.0364,-0.0335,-0.0324,-0.0278,-0.0264,-0.0269,-0.0282,-0.0261,-0.0266,-0.0271,-0.0213,-0.0214,-0.0214,0,0,-0.0862,-0.0843,-0.0867,-0.085,-0.0828,-0.0795,-0.0799,-0.0755,-0.0723,-0.0684,-0.0613,-0.0545,-0.0454,-0.0384,-0.0337,-0.0323,-0.0299,-0.0297,-0.0345,-0.0326,-0.0331,-0.0335,-0.035,-0.0355,-0.0299,-0.03,-0.03,0,-0.0877,-0.0905,-0.0868,-0.0887,-0.0886,-0.0817,-0.0844,-0.0795,-0.0736,-0.0721,-0.0686,-0.0551,-0.0461,-0.0395,-0.0375,-0.0332,-0.034,-0.0339,-0.0335,-0.0338,-0.0342,-0.0356,-0.036,-0.0303,-0.0303,-0.0303,-0.0302,0,-0.0938,-0.0957,-0.0972,-0.0969,-0.0961,-0.097,-0.0916,-0.0889,-0.0842,-0.0797,-0.0731,-0.0614,-0.0543,-0.0484,-0.0417,-0.0382,-0.0389,-0.0347,-0.0336,-0.0353,-0.0365,-0.0369,-0.0309,-0.0308,-0.0306,-0.0305,0,0,-0.0977,-0.101,-0.1012,-0.1043,-0.1011,-0.102,-0.0995,-0.0965,-0.0975,-0.0872,-0.0878,-0.071,-0.0658,-0.06,-0.0504,-0.0459,-0.0462,-0.0418,-0.0415,-0.0457,-0.0464,-0.0223,-0.0204,-0.0435,-0.0435,-0.0436,-0.0474,0,-0.103,-0.1102,-0.1097,-0.1154,-0.1186,-0.1135,-0.1138,-0.1099,-0.1043,-0.1023,-0.0884,-0.084,-0.0698,-0.0675,-0.0603,-0.0504,-0.0472,-0.0458,-0.0421,-0.042,-0.0221,-0.0198,-0.0072,-0.0073,-0.0477,-0.0478,-0.0478,0,-0.1084,-0.1131,-0.1209,-0.1279,-0.1293,-0.131,-0.1323,-0.1312,-0.1247,-0.121,-0.1126,-0.1037,-0.0926,-0.0818,-0.0671,-0.0681,-0.0581,-0.0499,-0.0498,-0.0245,-0.0182,-0.0112,-0.0063,0.0138,-0.0482,-0.0482,-0.0482,0,-0.1138,-0.121,-0.1284,-0.1298,-0.1353,-0.1384,-0.1399,-0.1368,-0.139,-0.1324,-0.1342,-0.1204,-0.115,-0.1006,-0.0754,-0.0756,-0.0605,-0.0594,-0.0294,-0.028,-0.0145,-0.0114,0.0092,-0.0512,-0.0511,-0.0511,-0.0511,0,-0.1202,-0.1262,-0.1318,-0.1363,-0.1473,-0.147,-0.1565,-0.1549,-0.1554,-0.1596,-0.1444,-0.1434,-0.1195,-0.105,-0.0846,-0.054,-0.0672,-0.0298,-0.0254,-0.0166,-0.0138,0.007,0.0111,-0.0513,-0.0512,-0.0512,-0.0512,0,-0.1258,-0.1286,-0.1391,-0.1475,-0.1506,-0.1583,-0.1687,-0.1754,-0.1729,-0.1779,-0.1771,-0.1635,-0.1404,-0.1121,-0.0876,-0.0641,-0.0232,-0.025,-0.0154,-0.0091,0.0403,0.0433,0.0637,0.0766,0.0015,0.0021,0.0027,0,-0.1296,-0.135,-0.1479,-0.1569,-0.1616,-0.1721,-0.181,-0.1829,-0.1895,-0.1882,-0.1921,-0.1716,-0.1476,-0.0987,-0.0545,-0.0127,-0.0006,0.0195,0.027,0.0478,0.0538,0.0532,0.0622,0.0362,0.0369,0.0375,0.038,0,-0.1385,-0.1426,-0.153,-0.1705,-0.1818,-0.1938,-0.2047,-0.2107,-0.2121,-0.2073,-0.197,-0.1762,-0.1251,-0.0644,-0.0051,0.0179,0.0383,0.0339,0.051,0.0821,0.0862,0.0992,0.0298,0.0435,0.0429,0.0425,0.0422,0.042,-0.1449,-0.1563,-0.1705,-0.1867,-0.2002,-0.2116,-0.2162,-0.2186,-0.2171,-0.1905,-0.1841,-0.1219,-0.0671,0.0238,0.0472,0.1029,0.086,0.1167,0.1168,0.1129,0.1349,0.0811,0.1061,0.1059,0.1058,0.1056,0.1055,0,-0.1534,-0.1681,-0.1863,-0.2053,-0.2193,-0.2217,-0.2305,-0.2214,-0.2067,-0.1548,-0.1191,-0.0162,0.0463,0.0978,0.1591,0.1836,0.1815,0.1899,0.186,0.1899,0.1388,0.1512,0.1929,0.1929,0.1929,0.1929,0.1929,0.1928,-0.1589,-0.1808,-0.1917,-0.2173,-0.2276,-0.2338,-0.2329,-0.2056,-0.1643,-0.0646,0.0254,0.0893,0.1388,0.1893,0.2354,0.2398,0.2539,0.2526,0.2571,0.2173,0.2102,0.2033,0.2166,0.2714,0.2714,0.3091,0.3095,0.3098]}],[{"header":{"parameterUnit":"m.s-1","parameterCategory":2,"la1":30.2991,"la2":30.254,"lo1":-89.0895,"lo2":-89.0444,"dy":0.0017,"dx":0.0017,"nx":28,"ny":28,"refTime":"2023-05-23T21:00:00:Z","depth":"2","parameterNumber":2,"parameterNumberName":"U-component_of_CURRENTS"},"data":[0,0,0,0,0,0,0,0,0,0,0,0,0,0,0,0,0,0,0,0,0,0,0,0,0,0,0,0,0,0,0,0,0,0,0,0,0,0,0,0,0,0,0,0,0,0,0,0,0,0,0,0,0,0,0,0,0,0,-0.2947,-0.2947,0,-0.3,-0.3001,-0.3002,-0.3106,-0.3108,-0.311,-0.3111,-0.2995,-0.2991,-0.2986,0,0,0,0,0,0,0,0,0,0,0,0,0,-0.2913,-0.2914,-0.2947,-0.2948,-0.2948,-0.2999,-0.3001,-0.3002,-0.3106,-0.3108,-0.311,-0.3112,-0.2997,-0.2991,-0.2986,0,0,0,0,0,0,0,0,0,0,0,0,0,-0.2947,-0.2914,-0.2947,-0.3003,-0.3008,-0.2999,-0.3001,-0.3002,-0.3106,-0.3108,-0.3111,-0.3113,-0.2998,-0.2992,-0.2985,-0.2892,0,0,-0.2964,-0.2961,0,0,0,0,0,0,0,0,-0.2945,-0.2949,-0.2994,-0.2999,-0.3004,-0.3045,-0.2946,-0.2955,-0.3105,-0.3073,-0.3111,-0.3114,-0.2991,-0.2985,-0.2998,-0.2887,-0.2882,-0.2963,-0.2959,-0.2956,-0.2954,0,0,0,0,0,0,0,-0.2943,-0.2947,-0.2973,-0.2994,-0.3,-0.3016,-0.3024,-0.2949,-0.3018,-0.3076,-0.3083,-0.3081,-0.2994,-0.3005,-0.2996,-0.288,-0.2963,-0.2957,-0.2953,-0.295,-0.2869,-0.2871,0,0,0,0,0,0,-0.2925,-0.2945,-0.2971,-0.2974,-0.2975,-0.3014,-0.3024,-0.3033,-0.3023,-0.3024,-0.3078,-0.3085,-0.3016,-0.3004,-0.2992,-0.3041,-0.2956,-0.2949,-0.2945,-0.2867,-0.2869,-0.2872,0,0,0,0,0,0,-0.2925,-0.2928,-0.2969,-0.2956,-0.2962,-0.3012,-0.3022,-0.3033,-0.3087,-0.3025,-0.3025,-0.3125,-0.3017,-0.3001,-0.2979,-0.3031,-0.2946,-0.294,-0.2865,-0.2868,-0.2871,-0.3035,0,0,0,0,0,0,-0.2924,-0.2927,-0.2921,-0.2955,-0.2962,-0.3003,-0.3019,-0.3032,-0.3076,-0.3087,-0.3063,-0.3054,-0.3018,-0.299,-0.2972,-0.302,-0.2934,-0.2862,-0.2866,-0.287,-0.3027,-0.3043,-0.3057,0,0,0,0,0,-0.2922,-0.2824,-0.2921,-0.2923,-0.2955,-0.3003,-0.301,-0.3055,-0.3076,-0.3112,-0.3101,-0.3057,-0.3003,-0.2985,-0.2964,-0.3011,-0.286,-0.2865,-0.2869,-0.302,-0.304,-0.3057,0,0,0,0,0,0,-0.2774,-0.2828,-0.2933,-0.2858,-0.2978,-0.3021,-0.3027,-0.307,-0.3092,-0.3105,-0.3058,-0.3047,-0.3048,-0.2998,-0.2981,-0.3002,-0.2932,-0.2932,-0.3054,-0.3072,-0.3087,-0.3024,-0.2929,0,0,0,0,0,-0.2757,-0.2764,-0.2847,-0.2844,-0.2887,-0.2989,-0.3009,-0.3066,-0.3086,-0.3105,-0.3093,-0.307,-0.3041,-0.3035,-0.2994,-0.2985,-0.2963,-0.3009,-0.3024,-0.3037,-0.2974,-0.3047,-0.3063,-0.2887,-0.2886,-0.2886,0,0,-0.2735,-0.2752,-0.2775,-0.2826,-0.2927,-0.2948,-0.3011,-0.3071,-0.3079,-0.3074,-0.3079,-0.3104,-0.3045,-0.306,-0.3058,-0.3034,-0.3087,-0.3043,-0.3055,-0.2982,-0.3053,-0.3071,-0.3086,-0.289,-0.2889,-0.2889,0,0,-0.2671,-0.271,-0.2713,-0.2759,-0.2876,-0.2937,-0.2966,-0.3057,-0.3099,-0.3129,-0.3128,-0.3191,-0.3141,-0.3145,-0.3122,-0.318,-0.3153,-0.3193,-0.3228,-0.3304,-0.3319,-0.3331,-0.3375,-0.3389,-0.3217,-0.3217,-0.3218,0,-0.2656,-0.2635,-0.2731,-0.2713,-0.2737,-0.293,-0.2937,-0.2983,-0.3059,-0.3078,-0.3147,-0.3188,-0.317,-0.3173,-0.3219,-0.3212,-0.324,-0.3173,-0.3326,-0.3337,-0.3347,-0.3388,-0.3402,-0.3226,-0.3225,-0.3224,-0.3223,0,-0.26,-0.2572,-0.2569,-0.2645,-0.2693,-0.2727,-0.2821,-0.288,-0.2988,-0.3055,-0.3145,-0.3215,-0.3236,-0.3293,-0.3262,-0.3335,-0.333,-0.3334,-0.3284,-0.3375,-0.3412,-0.3424,-0.3238,-0.3235,-0.3232,-0.323,0,0,-0.2584,-0.2546,-0.2544,-0.2579,-0.264,-0.2705,-0.2701,-0.2789,-0.2831,-0.2985,-0.305,-0.3123,-0.3247,-0.3228,-0.3291,-0.3388,-0.3529,-0.34,-0.34,-0.3446,-0.3691,-0.3258,-0.323,-0.3592,-0.3593,-0.3595,-0.3707,0,-0.2555,-0.2497,-0.2461,-0.2479,-0.2498,-0.2569,-0.2564,-0.2658,-0.279,-0.2894,-0.3043,-0.3152,-0.3195,-0.3305,-0.3388,-0.3506,-0.3558,-0.3494,-0.3584,-0.3585,-0.3194,-0.3226,-0.3017,-0.3058,-0.3718,-0.372,-0.3721,0,-0.2493,-0.2476,-0.2441,-0.2437,-0.2456,-0.2464,-0.2572,-0.2591,-0.2712,-0.281,-0.296,-0.3104,-0.3265,-0.3321,-0.3527,-0.3502,-0.3549,-0.3648,-0.3655,-0.3169,-0.3168,-0.3061,-0.3053,-0.374,-0.3739,-0.3737,-0.3736,0,-0.2503,-0.2444,-0.2437,-0.2423,-0.2444,-0.2438,-0.2487,-0.2585,-0.2617,-0.2805,-0.2915,-0.3112,-0.3271,-0.3406,-0.354,-0.3586,-0.3736,-0.3831,-0.3466,-0.344,-0.3214,-0.3157,-0.3881,-0.3881,-0.388,-0.388,-0.388,0,-0.2421,-0.2404,-0.2445,-0.2426,-0.2447,-0.2475,-0.2523,-0.2559,-0.2649,-0.2697,-0.2907,-0.2996,-0.3307,-0.3423,-0.3533,-0.3475,-0.3714,-0.3411,-0.3411,-0.3261,-0.321,-0.3745,-0.3728,-0.3884,-0.3883,-0.3882,-0.3882,0,-0.2349,-0.237,-0.2356,-0.2398,-0.2428,-0.245,-0.2495,-0.2527,-0.263,-0.2701,-0.2773,-0.2962,-0.3081,-0.3265,-0.3481,-0.3413,-0.3459,-0.3339,-0.3091,-0.3047,-0.3144,-0.3135,-0.3038,-0.3023,-0.3011,-0.3,-0.2991,0,-0.2278,-0.227,-0.2339,-0.2365,-0.236,-0.2417,-0.2437,-0.2505,-0.253,-0.2637,-0.2654,-0.2786,-0.2779,-0.2868,-0.2836,-0.2855,-0.3073,-0.2594,-0.2563,-0.3031,-0.3047,-0.3057,-0.3065,-0.2432,-0.2419,-0.2409,-0.24,0,-0.2134,-0.2174,-0.218,-0.2242,-0.228,-0.2312,-0.2349,-0.2364,-0.2425,-0.2452,-0.2465,-0.2469,-0.2436,-0.2299,-0.2172,-0.2176,-0.2585,-0.2357,-0.2997,-0.2562,-0.2435,-0.2456,-0.2491,-0.2307,-0.2316,-0.2323,-0.2328,-0.2332,-0.2035,-0.201,-0.2049,-0.2084,-0.2145,-0.2169,-0.2137,-0.2177,-0.2146,-0.2127,-0.2211,-0.2094,-0.203,-0.169,-0.1623,-0.1597,-0.1787,-0.1809,-0.1857,-0.1913,-0.1705,-0.1549,-0.1222,-0.1225,-0.1227,-0.123,-0.1232,0,-0.1895,-0.1887,-0.1897,-0.1928,-0.1921,-0.2015,-0.203,-0.1908,-0.1816,-0.1868,-0.1831,-0.1489,-0.1288,-0.1272,-0.1046,-0.0949,-0.1144,-0.095,-0.1265,-0.1349,-0.1426,-0.1212,-0.0591,-0.059,-0.0589,-0.0588,0,0,-0.1832,-0.1774,-0.1762,-0.1691,-0.1729,-0.1644,-0.1629,-0.146,-0.1407,-0.128,-0.1226,-0.1294,-0.1187,-0.0894,-0.0803,-0.0684,-0.106,-0.0653,-0.1153,-0.1609,-0.1688,-0.1869,-0.1617,0,0,0,0,0]},{"header":{"parameterUnit":"m.s-1","parameterCategory":2,"la1":30.2991,"la2":30.254,"lo1":-89.0895,"lo2":-89.0444,"dy":0.0017,"dx":0.0017,"nx":28,"ny":28,"refTime":"2023-05-23T21:00:00:Z","depth":"2","parameterNumber":3,"parameterNumberName":"V-component_of_CURRENTS"},"data":[0,0,0,0,0,0,0,0,0,0,0,0,0,0,0,0,0,0,0,0,0,0,0,0,0,0,0,0,0,0,0,0,0,0,0,0,0,0,0,0,0,0,0,0,0,0,0,0,0,0,0,0,0,0,0,0,0,0,-0.0085,-0.008,0,0.0371,0.0376,0.0381,0.0465,0.0462,0.0459,0.0456,0.0573,0.0579,0.0585,0,0,0,0,0,0,0,0,0,0,0,0,0,-0.0461,-0.0458,-0.0085,-0.0079,-0.0073,0.037,0.0376,0.0382,0.0466,0.0462,0.0458,0.0454,0.0571,0.0578,0.0585,0,0,0,0,0,0,0,0,0,0,0,0,0,-0.0187,-0.0457,-0.0086,0.0027,0.0042,0.0369,0.0376,0.0383,0.0466,0.0462,0.0457,0.0452,0.0569,0.0577,0.0586,0.0738,0,0,0.0614,0.0618,0,0,0,0,0,0,0,0,-0.0204,-0.0175,0.0004,0.002,0.0037,0.0362,0.0288,0.0487,0.0468,0.0299,0.0456,0.045,0.0478,0.0495,0.0587,0.0743,0.0748,0.0615,0.0621,0.0624,0.0627,0,0,0,0,0,0,0,-0.0223,-0.0191,0.0089,0.0011,0.0032,0.0201,0.0229,0.0329,0.0398,0.0313,0.0322,0.0384,0.0483,0.0579,0.059,0.075,0.0615,0.0623,0.0629,0.0632,0.0956,0.0959,0,0,0,0,0,0,-0.0284,-0.0211,0.0075,0.0104,-0.0091,0.021,0.0242,0.0257,0.0405,0.0428,0.0388,0.0386,0.0566,0.0579,0.0594,0.0704,0.0624,0.0633,0.0638,0.0953,0.0957,0.096,0,0,0,0,0,0,-0.0294,-0.0265,0.0057,-0.0036,0.0017,0.0218,0.0237,0.0269,0.0348,0.0467,0.048,0.043,0.0562,0.0581,0.0672,0.071,0.0637,0.0645,0.0949,0.0954,0.0959,0.0972,0,0,0,0,0,0,-0.0308,-0.0272,-0.0285,-0.0042,0.002,0.0224,0.0244,0.0282,0.0397,0.0399,0.0509,0.0517,0.056,0.0658,0.0681,0.0721,0.0652,0.0945,0.0952,0.0957,0.0967,0.0976,0.0984,0,0,0,0,0,-0.0324,-0.0307,-0.029,-0.0253,-0.0005,0.0227,0.0274,0.0401,0.0403,0.0449,0.052,0.0512,0.071,0.0669,0.0695,0.0738,0.0943,0.095,0.0957,0.0963,0.0974,0.0984,0,0,0,0,0,0,-0.0447,-0.0288,-0.0266,-0.0199,-0.002,0.0242,0.0323,0.0403,0.0514,0.0497,0.0569,0.0586,0.0674,0.072,0.0672,0.0851,0.0821,0.0834,0.0817,0.0828,0.0837,0.0736,0.066,0,0,0,0,0,-0.0488,-0.0467,-0.0251,-0.0201,-0.011,0.01,0.0207,0.0297,0.0442,0.0488,0.056,0.0642,0.0742,0.0785,0.0867,0.0984,0.097,0.1026,0.1034,0.1041,0.0979,0.1062,0.1071,0.0984,0.0984,0.0983,0,0,-0.0515,-0.0428,-0.0411,-0.0229,-0.0076,0.0034,0.015,0.0319,0.0369,0.0481,0.0549,0.0669,0.0777,0.0894,0.0938,0.0926,0.1058,0.105,0.1054,0.0987,0.107,0.1078,0.1085,0.0988,0.0988,0.0987,0,0,-0.0542,-0.048,-0.0463,-0.0339,-0.0133,0.0006,0.0039,0.0281,0.0343,0.0483,0.0553,0.0702,0.0846,0.0947,0.1015,0.1128,0.1094,0.115,0.112,0.1205,0.121,0.1215,0.1185,0.1187,0.1161,0.1161,0.1161,0,-0.0585,-0.0547,-0.0405,-0.0345,-0.026,-0.0033,0.0028,0.0157,0.0374,0.0413,0.0475,0.0754,0.0875,0.1013,0.1066,0.1143,0.1125,0.1072,0.1209,0.1214,0.1219,0.1187,0.1189,0.1163,0.1162,0.1162,0.1162,0,-0.0589,-0.0562,-0.0512,-0.0418,-0.0311,-0.0189,-0.0014,0.0071,0.0193,0.0319,0.049,0.0727,0.087,0.0984,0.1069,0.1179,0.113,0.1202,0.1166,0.1227,0.1191,0.1193,0.1165,0.1164,0.1164,0.1163,0,0,-0.0649,-0.0549,-0.0537,-0.0527,-0.0342,-0.0241,-0.018,-0.0028,0.0008,0.0245,0.0323,0.0619,0.0754,0.0839,0.1012,0.1136,0.1214,0.1171,0.1175,0.1103,0.1288,0.1259,0.1257,0.1299,0.13,0.1301,0.1237,0,-0.0678,-0.0655,-0.0587,-0.0547,-0.0495,-0.0353,-0.0312,-0.0184,-0.0029,0.0095,0.0366,0.0528,0.0694,0.0819,0.0961,0.1181,0.122,0.1216,0.1267,0.1265,0.1206,0.1262,0.1211,0.1152,0.1239,0.1239,0.1239,0,-0.0686,-0.068,-0.0678,-0.0636,-0.0598,-0.0564,-0.047,-0.0394,-0.021,-0.0091,0.0104,0.0304,0.0557,0.0701,0.0993,0.0971,0.107,0.1225,0.1228,0.1179,0.1242,0.1115,0.1151,0.1242,0.1242,0.1242,0.1241,0,-0.078,-0.0731,-0.0757,-0.0732,-0.0646,-0.0654,-0.0596,-0.0461,-0.0399,-0.0208,-0.0113,0.0162,0.0376,0.0565,0.0903,0.0928,0.118,0.1262,0.1279,0.1273,0.1225,0.1215,0.134,0.134,0.134,0.134,0.1341,0,-0.0812,-0.0823,-0.081,-0.0816,-0.0846,-0.0759,-0.0748,-0.0667,-0.0526,-0.0434,-0.021,-0.0049,0.0361,0.0585,0.0803,0.1051,0.1084,0.1229,0.1271,0.1228,0.122,0.1303,0.13,0.1338,0.1338,0.1339,0.1339,0,-0.0869,-0.0862,-0.089,-0.0879,-0.0886,-0.0903,-0.0855,-0.0827,-0.0697,-0.0569,-0.0508,-0.0186,0.012,0.0442,0.0804,0.0949,0.1178,0.1209,0.1078,0.1106,0.1203,0.1201,0.12,0.1198,0.1197,0.1197,0.1196,0,-0.0886,-0.0912,-0.0964,-0.1009,-0.1005,-0.1023,-0.1028,-0.0923,-0.0866,-0.0628,-0.0554,-0.026,-0.0016,0.0439,0.0774,0.104,0.1111,0.1079,0.1149,0.1154,0.1196,0.1196,0.1196,0.107,0.1068,0.1067,0.1065,0,-0.0918,-0.0949,-0.0987,-0.1094,-0.1137,-0.1167,-0.115,-0.1133,-0.0964,-0.082,-0.0578,-0.0385,0.0036,0.0408,0.0726,0.0881,0.1054,0.1054,0.1137,0.1124,0.1032,0.1072,0.1077,0.1053,0.1054,0.1055,0.1056,0.1056,-0.0948,-0.0999,-0.1075,-0.1165,-0.1233,-0.1276,-0.1283,-0.1197,-0.108,-0.0805,-0.0617,-0.0302,0.0005,0.05,0.0731,0.094,0.0974,0.1029,0.1034,0.104,0.1048,0.0962,0.0962,0.0963,0.0963,0.0964,0.0964,0,-0.0976,-0.1048,-0.114,-0.1246,-0.1329,-0.135,-0.1334,-0.1261,-0.1099,-0.0799,-0.0525,-0.0202,0.0134,0.0429,0.0754,0.0932,0.0944,0.0937,0.0949,0.0959,0.0968,0.0975,0.0868,0.0869,0.0869,0.0869,0,0,-0.1001,-0.1099,-0.1153,-0.13,-0.1383,-0.145,-0.1447,-0.1259,-0.1038,-0.0697,-0.0446,-0.015,0.0158,0.0366,0.0606,0.0766,0.0812,0.0754,0.081,0.0807,0.0815,0.0995,0.1012,0,0,0,0,0]}],[{"header":{"parameterUnit":"m.s-1","parameterCategory":2,"la1":30.2991,"la2":30.254,"lo1":-89.0895,"lo2":-89.0444,"dy":0.0017,"dx":0.0017,"nx":28,"ny":28,"refTime":"2023-05-23T21:00:00:Z","depth":"4","parameterNumber":2,"parameterNumberName":"U-component_of_CURRENTS"},"data":[0,0,0,0,0,0,0,0,0,0,0,0,0,0,0,0,0,0,0,0,0,0,0,0,0,0,0,0,0,0,0,0,0,0,0,0,0,0,0,0,0,0,0,0,0,0,0,0,0,0,0,0,0,0,0,0,0,0,-0.127,-0.127,0,-0.1292,-0.1292,-0.1292,-0.1307,-0.1307,-0.1307,-0.1307,-0.1341,-0.1342,-0.1343,0,0,0,0,0,0,0,0,0,0,0,0,0,-0.132,-0.1319,-0.127,-0.127,-0.127,-0.1292,-0.1292,-0.1292,-0.1307,-0.1307,-0.1307,-0.1307,-0.1341,-0.1342,-0.1343,0,0,0,0,0,0,0,0,0,0,0,0,0,-0.1316,-0.1318,-0.127,-0.1279,-0.128,-0.1291,-0.1292,-0.1292,-0.1307,-0.1307,-0.1307,-0.1307,-0.134,-0.1342,-0.1343,-0.135,0,0,-0.1347,-0.1348,0,0,0,0,0,0,0,0,-0.1316,-0.1314,-0.1278,-0.1279,-0.128,-0.1296,-0.1322,-0.1312,-0.1307,-0.1298,-0.1307,-0.1307,-0.1327,-0.1329,-0.1334,-0.1352,-0.1353,-0.1347,-0.1348,-0.1349,-0.1349,0,0,0,0,0,0,0,-0.1317,-0.1314,-0.1279,-0.1278,-0.1279,-0.131,-0.1309,-0.1321,-0.1312,-0.1299,-0.1299,-0.1301,-0.1327,-0.1333,-0.1335,-0.1354,-0.1347,-0.1348,-0.1349,-0.135,-0.1401,-0.1402,0,0,0,0,0,0,-0.1308,-0.1314,-0.1279,-0.128,-0.1298,-0.1308,-0.1307,-0.1291,-0.1312,-0.1315,-0.13,-0.1301,-0.133,-0.1333,-0.1336,-0.1393,-0.1349,-0.135,-0.1351,-0.14,-0.1401,-0.1402,0,0,0,0,0,0,-0.1308,-0.1304,-0.1278,-0.1298,-0.1297,-0.1307,-0.1289,-0.1292,-0.1313,-0.1313,-0.1317,-0.132,-0.1331,-0.1334,-0.1365,-0.1392,-0.135,-0.1352,-0.14,-0.1401,-0.1401,-0.1476,0,0,0,0,0,0,-0.1309,-0.1303,-0.1308,-0.1297,-0.1295,-0.1298,-0.1289,-0.1292,-0.1312,-0.1313,-0.1331,-0.1333,-0.1331,-0.1363,-0.1367,-0.1393,-0.1353,-0.1399,-0.14,-0.1401,-0.1473,-0.1479,-0.1485,0,0,0,0,0,-0.1311,-0.1305,-0.1307,-0.1304,-0.1293,-0.1298,-0.1301,-0.131,-0.1313,-0.1328,-0.1342,-0.1334,-0.1372,-0.1366,-0.1369,-0.1397,-0.1399,-0.14,-0.1401,-0.147,-0.1478,-0.1485,0,0,0,0,0,0,-0.1336,-0.1305,-0.1308,-0.1296,-0.1306,-0.1301,-0.1315,-0.1321,-0.1344,-0.1352,-0.135,-0.1354,-0.1383,-0.1379,-0.1371,-0.1411,-0.138,-0.1382,-0.1432,-0.1439,-0.1445,-0.146,-0.1354,0,0,0,0,0,-0.1341,-0.1329,-0.1316,-0.1317,-0.1316,-0.1321,-0.1331,-0.1339,-0.1348,-0.1359,-0.1369,-0.1378,-0.1388,-0.1406,-0.1407,-0.1443,-0.1426,-0.1458,-0.1464,-0.1469,-0.1481,-0.1489,-0.1498,-0.1406,-0.1406,-0.1406,0,0,-0.1362,-0.1338,-0.134,-0.1323,-0.1328,-0.1341,-0.1328,-0.1346,-0.1376,-0.1359,-0.1404,-0.1399,-0.1398,-0.143,-0.1443,-0.1436,-0.1481,-0.1471,-0.1476,-0.1485,-0.1491,-0.15,-0.1509,-0.1407,-0.1407,-0.1407,0,0,-0.1376,-0.1365,-0.1356,-0.1361,-0.1365,-0.1373,-0.1382,-0.1388,-0.1408,-0.1444,-0.1436,-0.1453,-0.1472,-0.1481,-0.1486,-0.1528,-0.1504,-0.1523,-0.1584,-0.1591,-0.1599,-0.1606,-0.1577,-0.1581,-0.1538,-0.1539,-0.1539,0,-0.1402,-0.1382,-0.1364,-0.1358,-0.1378,-0.1388,-0.1409,-0.1431,-0.1455,-0.1483,-0.1468,-0.1499,-0.1497,-0.1541,-0.1554,-0.1544,-0.1532,-0.1561,-0.1601,-0.1608,-0.1614,-0.1582,-0.1585,-0.1542,-0.1542,-0.1541,-0.1541,0,-0.1399,-0.1404,-0.1402,-0.14,-0.1424,-0.1445,-0.1469,-0.1507,-0.153,-0.155,-0.1593,-0.1585,-0.1608,-0.1604,-0.1597,-0.1642,-0.1611,-0.16,-0.1588,-0.1628,-0.1591,-0.1593,-0.1548,-0.1546,-0.1545,-0.1544,0,0,-0.1404,-0.14,-0.1406,-0.1426,-0.1451,-0.1474,-0.1533,-0.1588,-0.1634,-0.1655,-0.1704,-0.1718,-0.1714,-0.1718,-0.1705,-0.1717,-0.1737,-0.1688,-0.1687,-0.1667,-0.1732,-0.1629,-0.162,-0.174,-0.1742,-0.1743,-0.1683,0,-0.1414,-0.1417,-0.1422,-0.148,-0.1493,-0.1539,-0.1597,-0.1657,-0.1696,-0.1744,-0.1755,-0.1781,-0.1758,-0.1766,-0.1781,-0.1736,-0.1749,-0.1752,-0.1689,-0.1687,-0.1598,-0.1622,-0.1747,-0.1684,-0.1685,-0.1685,-0.1685,0,-0.1407,-0.1412,-0.145,-0.1522,-0.1536,-0.1584,-0.1689,-0.1741,-0.1814,-0.1839,-0.1876,-0.187,-0.1888,-0.1857,-0.1832,-0.1836,-0.1804,-0.1768,-0.1764,-0.1647,-0.1588,-0.1639,-0.1688,-0.1688,-0.1688,-0.1688,-0.1687,0,-0.1405,-0.1446,-0.1484,-0.1503,-0.1573,-0.1628,-0.1688,-0.1774,-0.1818,-0.1895,-0.1909,-0.1942,-0.1927,-0.1914,-0.1839,-0.1845,-0.1789,-0.1783,-0.1661,-0.1651,-0.173,-0.1724,-0.1788,-0.1788,-0.1788,-0.1788,-0.1788,0,-0.1393,-0.1433,-0.149,-0.1504,-0.1581,-0.1643,-0.1729,-0.1794,-0.1865,-0.1893,-0.1951,-0.1935,-0.1942,-0.1904,-0.186,-0.1746,-0.1805,-0.1672,-0.1638,-0.1758,-0.1755,-0.173,-0.1724,-0.1786,-0.1786,-0.1787,-0.1787,0,-0.1369,-0.1402,-0.1454,-0.1537,-0.1569,-0.163,-0.1727,-0.1771,-0.1854,-0.1884,-0.1901,-0.1925,-0.1857,-0.184,-0.1784,-0.1735,-0.1661,-0.1617,-0.1722,-0.1694,-0.1515,-0.1514,-0.1477,-0.1473,-0.147,-0.1467,-0.1465,0,-0.1341,-0.1361,-0.1459,-0.1485,-0.1521,-0.1606,-0.1646,-0.175,-0.1777,-0.1837,-0.1824,-0.1805,-0.1797,-0.1617,-0.1631,-0.1553,-0.1542,-0.1518,-0.155,-0.1517,-0.1488,-0.1492,-0.1495,-0.1459,-0.1458,-0.1457,-0.1457,0,-0.1294,-0.1347,-0.1386,-0.1429,-0.1477,-0.153,-0.1592,-0.16,-0.1692,-0.177,-0.1692,-0.1651,-0.1574,-0.1515,-0.147,-0.1419,-0.1544,-0.1483,-0.149,-0.152,-0.1495,-0.147,-0.1477,-0.1445,-0.1447,-0.1448,-0.1448,0,-0.1264,-0.1285,-0.133,-0.136,-0.1411,-0.1417,-0.1478,-0.1478,-0.1514,-0.1584,-0.1536,-0.1512,-0.153,-0.1442,-0.139,-0.1342,-0.1331,-0.1322,-0.1337,-0.135,-0.1341,-0.1292,-0.1152,0,0,0,0,0,-0.1219,-0.122,-0.1242,-0.126,-0.1301,-0.1318,-0.1411,-0.1468,-0.1545,-0.1451,-0.1496,-0.1413,-0.1331,-0.1321,-0.124,-0.1349,-0.1351,-0.1256,-0.1353,-0.1381,-0.1394,-0.1396,0,0,0,0,0,0,-0.1191,-0.1217,-0.1208,-0.115,-0.1129,-0.1158,-0.121,-0.1276,-0.1241,-0.1318,-0.1262,-0.133,-0.1253,-0.1316,-0.1194,-0.1199,-0.1241,-0.1259,-0.1257,-0.1373,-0.1385,-0.1396,-0.1403,0,0,0,0,0]},{"header":{"parameterUnit":"m.s-1","parameterCategory":2,"la1":30.2991,"la2":30.254,"lo1":-89.0895,"lo2":-89.0444,"dy":0.0017,"dx":0.0017,"nx":28,"ny":28,"refTime":"2023-05-23T21:00:00:Z","depth":"4","parameterNumber":3,"parameterNumberName":"V-component_of_CURRENTS"},"data":[0,0,0,0,0,0,0,0,0,0,0,0,0,0,0,0,0,0,0,0,0,0,0,0,0,0,0,0,0,0,0,0,0,0,0,0,0,0,0,0,0,0,0,0,0,0,0,0,0,0,0,0,0,0,0,0,0,0,-0.0271,-0.027,0,-0.0199,-0.0199,-0.0198,-0.015,-0.0149,-0.0149,-0.0148,-0.011,-0.011,-0.0109,0,0,0,0,0,0,0,0,0,0,0,0,0,-0.0339,-0.0339,-0.0271,-0.027,-0.0269,-0.0199,-0.0199,-0.0198,-0.015,-0.0149,-0.0149,-0.0148,-0.011,-0.011,-0.0109,0,0,0,0,0,0,0,0,0,0,0,0,0,-0.0296,-0.0338,-0.0272,-0.0235,-0.023,-0.0199,-0.0198,-0.0198,-0.015,-0.0149,-0.0149,-0.0148,-0.011,-0.011,-0.0109,-0.0122,0,0,-0.0107,-0.0107,0,0,0,0,0,0,0,0,-0.0298,-0.0294,-0.0241,-0.0237,-0.0232,-0.018,-0.0208,-0.0173,-0.0151,-0.0184,-0.0148,-0.0147,-0.0135,-0.0133,-0.0125,-0.0121,-0.0119,-0.0107,-0.0106,-0.0106,-0.0106,0,0,0,0,0,0,0,-0.0301,-0.0296,-0.0246,-0.024,-0.0235,-0.0211,-0.0205,-0.0201,-0.0168,-0.0181,-0.0176,-0.0164,-0.0133,-0.0125,-0.0123,-0.0118,-0.0107,-0.0106,-0.0106,-0.0105,-0.0127,-0.0128,0,0,0,0,0,0,-0.0307,-0.0299,-0.0248,-0.0243,-0.026,-0.0211,-0.0204,-0.02,-0.0168,-0.0161,-0.0165,-0.0162,-0.0127,-0.0124,-0.0122,-0.0115,-0.0106,-0.0105,-0.0105,-0.0126,-0.0127,-0.0129,0,0,0,0,0,0,-0.0309,-0.0303,-0.0251,-0.0267,-0.0258,-0.0211,-0.0207,-0.0199,-0.0191,-0.0154,-0.0149,-0.0165,-0.0126,-0.0123,-0.0117,-0.0114,-0.0105,-0.0104,-0.0125,-0.0127,-0.0128,-0.0115,0,0,0,0,0,0,-0.0311,-0.0305,-0.0312,-0.0267,-0.0257,-0.024,-0.0207,-0.0198,-0.0183,-0.0179,-0.0153,-0.0148,-0.0125,-0.0119,-0.0117,-0.0113,-0.0104,-0.0124,-0.0126,-0.0128,-0.0114,-0.0115,-0.0117,0,0,0,0,0,-0.0314,-0.0324,-0.0313,-0.0307,-0.0267,-0.0241,-0.0235,-0.0199,-0.0185,-0.0188,-0.0165,-0.0149,-0.0129,-0.0119,-0.0116,-0.0112,-0.0123,-0.0125,-0.0127,-0.0113,-0.0115,-0.0117,0,0,0,0,0,0,-0.0352,-0.0318,-0.0306,-0.0304,-0.0279,-0.0232,-0.023,-0.0208,-0.0192,-0.019,-0.0157,-0.0151,-0.0149,-0.0142,-0.0131,-0.0129,-0.0126,-0.0128,-0.0116,-0.0118,-0.012,-0.0111,-0.0103,0,0,0,0,0,-0.0366,-0.0367,-0.0328,-0.0327,-0.0319,-0.0279,-0.0267,-0.0243,-0.0217,-0.0208,-0.0186,-0.0171,-0.0158,-0.0147,-0.0144,-0.0138,-0.0098,-0.0139,-0.014,-0.0141,-0.0136,-0.007,-0.0063,-0.0136,-0.0136,-0.0136,0,0,-0.0382,-0.036,-0.0362,-0.0336,-0.0315,-0.031,-0.0271,-0.0256,-0.0244,-0.0209,-0.0198,-0.0182,-0.0163,-0.0153,-0.0152,-0.0142,-0.01,-0.0144,-0.0144,-0.0138,-0.0071,-0.0063,-0.0056,-0.0137,-0.0137,-0.0137,0,0,-0.0406,-0.0396,-0.0404,-0.0392,-0.0363,-0.0337,-0.0337,-0.0299,-0.0276,-0.0267,-0.0234,-0.0206,-0.0205,-0.0164,-0.015,-0.0163,-0.0119,-0.0179,-0.0162,-0.0098,-0.009,-0.0083,-0.0013,0.0,-0.0168,-0.0168,-0.0168,0,-0.0425,-0.0426,-0.0403,-0.0407,-0.0398,-0.0355,-0.0361,-0.0334,-0.0296,-0.027,-0.0271,-0.0224,-0.0203,-0.0156,-0.0156,-0.0161,-0.0121,-0.0149,-0.0095,-0.0087,-0.008,-0.001,0.0004,-0.0167,-0.0168,-0.0168,-0.0168,0,-0.0452,-0.0457,-0.0461,-0.0453,-0.0447,-0.0442,-0.0405,-0.0387,-0.036,-0.032,-0.028,-0.024,-0.0203,-0.0195,-0.0176,-0.0117,-0.0104,-0.0108,-0.0079,-0.0071,0.0001,0.0016,-0.0167,-0.0167,-0.0167,-0.0167,0,0,-0.0476,-0.0479,-0.0482,-0.0489,-0.047,-0.0466,-0.0447,-0.0404,-0.0378,-0.0336,-0.0292,-0.0247,-0.0207,-0.0189,-0.0151,-0.0087,0.0008,-0.0075,-0.0071,0.0015,0.0159,0.0104,0.0116,0.0017,0.0019,0.0021,0.0194,0,-0.0498,-0.0524,-0.0515,-0.0536,-0.0545,-0.051,-0.0499,-0.0457,-0.0408,-0.0357,-0.0278,-0.0241,-0.0209,-0.0188,-0.0114,-0.0035,0.0046,-0.0038,0.012,0.0125,0.0092,0.0131,0.0028,0.0205,0.0209,0.0211,0.0213,0,-0.0523,-0.0535,-0.0566,-0.0574,-0.0576,-0.0583,-0.0548,-0.0527,-0.0437,-0.0398,-0.032,-0.0266,-0.0158,-0.0149,0.0034,-0.0022,0.0071,0.0141,0.0149,0.0104,0.0097,0.019,0.0241,0.0239,0.0237,0.0235,0.0233,0,-0.0549,-0.0568,-0.0595,-0.0601,-0.0604,-0.0606,-0.0598,-0.0537,-0.0512,-0.0414,-0.038,-0.0255,-0.0187,-0.0061,0.0083,0.0064,0.0281,0.0273,0.0324,0.0322,0.0317,0.0307,0.0414,0.0414,0.0413,0.0413,0.0412,0,-0.0567,-0.0591,-0.0613,-0.0631,-0.066,-0.0647,-0.0647,-0.0613,-0.0551,-0.0501,-0.0403,-0.0326,-0.0162,-0.0023,0.0098,0.0258,0.0302,0.0342,0.0365,0.0316,0.0305,0.0329,0.0317,0.0419,0.0418,0.0416,0.0415,0,-0.0587,-0.0602,-0.0642,-0.0665,-0.0677,-0.0699,-0.0704,-0.0688,-0.0625,-0.0553,-0.0526,-0.036,-0.0181,-0.002,0.0203,0.0274,0.0425,0.0475,0.0426,0.0441,0.0426,0.0412,0.0553,0.0552,0.0552,0.0552,0.0551,0,-0.0595,-0.0619,-0.0682,-0.0714,-0.0728,-0.0754,-0.0767,-0.0732,-0.07,-0.0558,-0.0515,-0.0338,-0.0214,0.0079,0.0225,0.0444,0.0462,0.0539,0.0471,0.0433,0.0442,0.0428,0.0416,0.0551,0.0551,0.0551,0.055,0,-0.0613,-0.0646,-0.0683,-0.0754,-0.079,-0.082,-0.0823,-0.0809,-0.0727,-0.067,-0.0475,-0.0316,-0.0112,0.009,0.025,0.0405,0.0478,0.0535,0.0536,0.0474,0.0432,0.0438,0.0426,0.0549,0.0549,0.0549,0.0549,0,-0.0628,-0.0668,-0.0729,-0.0785,-0.0836,-0.086,-0.0864,-0.0796,-0.0756,-0.0587,-0.0511,-0.0282,-0.0132,0.0074,0.023,0.0355,0.0377,0.0404,0.0413,0.0416,0.0295,0.0216,0.0304,0,0,0,0,0,-0.0636,-0.069,-0.0751,-0.0817,-0.0865,-0.0893,-0.0884,-0.0866,-0.0778,-0.0644,-0.0574,-0.0375,-0.0114,0.0013,0.0132,0.0175,0.0357,0.0311,0.0381,0.0542,0.0543,0.0415,0,0,0,0,0,0,-0.0647,-0.0716,-0.0755,-0.0824,-0.0869,-0.0915,-0.0914,-0.0861,-0.0771,-0.0653,-0.0506,-0.0378,-0.013,-0.0183,0.0127,0.0168,0.022,0.0449,0.045,0.0541,0.0542,0.0543,0.0412,0,0,0,0,0]}]]